Weather History for KHYW - December, 2012

Change the Weather History Date:

Friday, December 21, 2012

  Actual Average (KCRE) Record (KCRE)
Temperature  
Mean Temperature 50 °F -  
Max Temperature 60 °F 53 °F 73 °F (2013)
Min Temperature 41 °F 35 °F 17 °F (1954)
Degree Days  
Heating Degree Days 14    
Moisture  
Dew Point 31 °F    
Average Humidity 58    
Maximum Humidity 100    
Minimum Humidity 43    
Precipitation  
Precipitation 0.00 in - - ()
Sea Level Pressure  
Sea Level Pressure 29.79 in    
Wind  
Wind Speed 11 mph (WSW)    
Max Wind Speed 18 mph    
Max Gust Speed 31 mph    
Visibility 7 miles    
Events      
Averages and records for this station are not official NWS values.
T = Trace of Precipitation, MM = Missing Value Source: NWS Daily Summary

Daily Weather History Graph

Daily Weather History Graph

Search for Another Location

Airport or City:

Trip Planner

Search our weather history database for the weather conditions in past years. The results will help you decide how hot, cold, wet, or windy it might be!

Date:

Astronomy

Dec. 21, 2012 Rise Set
Actual Time 7:17 AM EST 5:12 PM EST
Civil Twilight 6:50 AM EST 5:39 PM EST
Nautical Twilight 6:18 AM EST 6:10 PM EST
Astronomical Twilight 5:48 AM EST 6:41 PM EST
Moon 12:47 PM EST (12/21) 1:14 AM EST (12/21)
Length of Visible Light 10h 49m
Length of Day
9h 54m
Waxing Gibbous, 64% of the Moon is Illuminated
Dec 21
Waxing Gibbous
Dec 28
Full
Jan 4
Last Quarter
Jan 11
New
Jan 18
First Quarter

Hourly Weather History & Observations

Time (EST) Temp. Windchill Dew Point Humidity Pressure Visibility Wind Dir Wind Speed Gust Speed Precip Events Conditions
12:15 AM 60.8 °F - 60.8 °F 100% 29.62 in 7.0 mi SW 8.1 mph 20.7 mph N/A   Overcast
12:35 AM 59.0 °F - 53.6 °F 82% 29.64 in 10.0 mi West 13.8 mph 24.2 mph N/A   Overcast
12:55 AM 55.4 °F - 50.0 °F 82% 29.65 in 7.0 mi WSW 11.5 mph 21.9 mph N/A   Overcast
1:15 AM 55.4 °F - 48.2 °F 77% 29.65 in 7.0 mi West 9.2 mph 24.2 mph N/A   Mostly Cloudy
1:35 AM 53.6 °F - 44.6 °F 72% 29.66 in 7.0 mi West 18.4 mph 26.5 mph N/A   Overcast
1:55 AM 51.8 °F - 39.2 °F 62% 29.68 in 7.0 mi WSW 16.1 mph 29.9 mph N/A   Overcast
2:15 AM 48.2 °F - 35.6 °F 62% 29.71 in 7.0 mi West 15.0 mph 27.6 mph N/A   Mostly Cloudy
2:35 AM 46.4 °F 40.7 °F 32.0 °F 57% 29.72 in 10.0 mi West 12.7 mph 27.6 mph N/A   Scattered Clouds
2:55 AM 44.6 °F 38.1 °F 32.0 °F 61% 29.72 in 7.0 mi West 13.8 mph 23.0 mph N/A   Clear
3:15 AM 44.6 °F 38.8 °F 32.0 °F 61% 29.73 in 10.0 mi West 11.5 mph 28.8 mph N/A   Clear
3:35 AM 44.6 °F 38.8 °F 32.0 °F 61% 29.73 in 7.0 mi West 11.5 mph 21.9 mph N/A   Clear
3:55 AM 44.6 °F 39.2 °F 32.0 °F 61% 29.73 in 7.0 mi WSW 10.4 mph 20.7 mph N/A   Clear
4:15 AM 44.6 °F 38.8 °F 32.0 °F 61% 29.73 in 7.0 mi WSW 11.5 mph 23.0 mph N/A   Clear
4:35 AM 44.6 °F 38.4 °F 32.0 °F 61% 29.72 in 7.0 mi WSW 12.7 mph 25.3 mph N/A   Clear
4:55 AM 44.6 °F 38.4 °F 32.0 °F 61% 29.73 in 7.0 mi West 12.7 mph 23.0 mph N/A   Clear
5:15 AM 44.6 °F 39.7 °F 32.0 °F 61% 29.73 in 10.0 mi WSW 9.2 mph 23.0 mph N/A   Clear
5:35 AM 42.8 °F 37.5 °F 32.0 °F 66% 29.73 in 7.0 mi WSW 9.2 mph 19.6 mph N/A   Clear
5:55 AM 42.8 °F 36.2 °F 32.0 °F 66% 29.74 in 7.0 mi WSW 12.7 mph 20.7 mph N/A   Clear
6:15 AM 42.8 °F 37.0 °F 32.0 °F 66% 29.76 in 7.0 mi WSW 10.4 mph 19.6 mph N/A   Clear
6:35 AM 42.8 °F 36.6 °F 32.0 °F 66% 29.76 in 7.0 mi WSW 11.5 mph 16.1 mph N/A   Clear
6:55 AM 42.8 °F 38.0 °F 32.0 °F 66% 29.76 in 7.0 mi WSW 8.1 mph 19.6 mph N/A   Clear
7:15 AM 42.8 °F 38.0 °F 32.0 °F 66% 29.76 in 7.0 mi SW 8.1 mph - N/A   Clear
7:35 AM 42.8 °F 36.2 °F 32.0 °F 66% 29.77 in 5.0 mi WSW 12.7 mph 19.6 mph N/A   Haze
7:55 AM 42.8 °F 38.6 °F 32.0 °F 66% 29.77 in 5.0 mi SW 6.9 mph - N/A   Haze
8:15 AM 42.8 °F 37.0 °F 32.0 °F 66% 29.78 in 7.0 mi WSW 10.4 mph 17.3 mph N/A   Clear
8:35 AM 44.6 °F 38.8 °F 32.0 °F 61% 29.78 in 7.0 mi WSW 11.5 mph 18.4 mph N/A   Clear
8:55 AM 44.6 °F 38.8 °F 32.0 °F 61% 29.78 in 7.0 mi WSW 11.5 mph 21.9 mph N/A   Clear
9:15 AM 44.6 °F 38.1 °F 32.0 °F 61% 29.78 in 7.0 mi West 13.8 mph 25.3 mph N/A   Clear
9:35 AM 44.6 °F 38.1 °F 30.2 °F 57% 29.79 in 5.0 mi WSW 13.8 mph 26.5 mph N/A   Haze
9:55 AM 44.6 °F 39.2 °F 30.2 °F 57% 29.79 in 5.0 mi WSW 10.4 mph 28.8 mph N/A   Haze
10:15 AM 46.4 °F 39.5 °F 30.2 °F 53% 29.79 in 7.0 mi WSW 17.3 mph 26.5 mph N/A   Clear
10:35 AM 44.6 °F 38.8 °F 28.4 °F 53% 29.79 in 7.0 mi WSW 11.5 mph 27.6 mph N/A   Clear
10:55 AM 46.4 °F 39.8 °F 28.4 °F 50% 29.79 in 7.0 mi WSW 16.1 mph 25.3 mph N/A   Clear
11:15 AM 46.4 °F 41.5 °F 28.4 °F 50% 29.78 in 7.0 mi WSW 10.4 mph 23.0 mph N/A   Clear
11:35 AM 46.4 °F 40.7 °F 28.4 °F 50% 29.78 in 7.0 mi West 12.7 mph 26.5 mph N/A   Clear
11:55 AM 46.4 °F 40.1 °F 28.4 °F 50% 29.77 in 5.0 mi WSW 15.0 mph 27.6 mph N/A   Haze
12:15 PM 46.4 °F 40.4 °F 28.4 °F 50% 29.76 in 5.0 mi West 13.8 mph 24.2 mph N/A   Haze
12:35 PM 48.2 °F - 28.4 °F 46% 29.75 in 5.0 mi WSW 12.7 mph 26.5 mph N/A   Haze
12:55 PM 50.0 °F - 30.2 °F 47% 29.75 in 7.0 mi WNW 10.4 mph 21.9 mph N/A   Clear
1:15 PM 50.0 °F - 28.4 °F 43% 29.75 in 7.0 mi West 9.2 mph 18.4 mph N/A   Scattered Clouds
1:35 PM 50.0 °F - 30.2 °F 47% 29.75 in 5.0 mi West 10.4 mph 20.7 mph N/A   Haze
1:55 PM 48.2 °F - 28.4 °F 46% 29.75 in 7.0 mi WSW 10.4 mph 25.3 mph N/A   Mostly Cloudy
2:15 PM 50.0 °F - 28.4 °F 43% 29.75 in 7.0 mi West 11.5 mph 23.0 mph N/A   Scattered Clouds
2:35 PM 48.2 °F - 28.4 °F 46% 29.75 in 7.0 mi West 10.4 mph 31.1 mph N/A   Scattered Clouds
2:55 PM 50.0 °F - 28.4 °F 43% 29.76 in 7.0 mi West 11.5 mph 26.5 mph N/A   Mostly Cloudy
3:15 PM 50.0 °F - 28.4 °F 43% 29.77 in 7.0 mi WSW 8.1 mph 18.4 mph N/A   Mostly Cloudy
3:35 PM 50.0 °F - 28.4 °F 43% 29.78 in 5.0 mi West 10.4 mph 17.3 mph N/A   Haze
3:55 PM 48.2 °F - 26.6 °F 43% 29.78 in 7.0 mi West 11.5 mph 17.3 mph N/A   Mostly Cloudy
4:15 PM 48.2 °F - 26.6 °F 43% 29.79 in 5.0 mi West 10.4 mph 24.2 mph N/A   Haze
4:35 PM 46.4 °F 42.4 °F 26.6 °F 46% 29.80 in 7.0 mi West 8.1 mph 20.7 mph N/A   Scattered Clouds
4:55 PM 46.4 °F 41.9 °F 26.6 °F 46% 29.81 in 7.0 mi West 9.2 mph 18.4 mph N/A   Clear
5:15 PM 46.4 °F 42.4 °F 26.6 °F 46% 29.82 in 7.0 mi West 8.1 mph - N/A   Scattered Clouds
5:55 PM 44.6 °F 40.7 °F 26.6 °F 49% 29.84 in 7.0 mi West 6.9 mph - N/A   Clear
6:15 PM 44.6 °F 41.4 °F 26.6 °F 49% 29.85 in 7.0 mi West 5.8 mph - N/A   Clear
6:35 PM 44.6 °F 40.2 °F 26.6 °F 49% 29.86 in 7.0 mi WSW 8.1 mph 18.4 mph N/A   Clear
6:55 PM 44.6 °F 42.2 °F 26.6 °F 49% 29.86 in 7.0 mi WSW 4.6 mph - N/A   Clear
7:15 PM 42.8 °F 41.1 °F 28.4 °F 57% 29.87 in 7.0 mi WSW 3.5 mph - N/A   Clear
7:35 PM 42.8 °F 41.1 °F 28.4 °F 57% 29.88 in 7.0 mi WSW 3.5 mph - N/A   Clear
7:55 PM 41.0 °F 39.0 °F 28.4 °F 61% 29.88 in 7.0 mi WSW 3.5 mph - N/A   Clear
8:15 PM 41.0 °F 37.1 °F 28.4 °F 61% 29.89 in 7.0 mi WSW 5.8 mph - N/A   Clear
8:35 PM 41.0 °F 37.1 °F 28.4 °F 61% 29.89 in 7.0 mi WSW 5.8 mph - N/A   Clear
8:55 PM 41.0 °F 38.0 °F 28.4 °F 61% 29.89 in 7.0 mi WSW 4.6 mph - N/A   Clear
9:15 PM 41.0 °F 39.0 °F 28.4 °F 61% 29.89 in 7.0 mi WSW 3.5 mph - N/A   Clear
9:35 PM 41.0 °F 37.1 °F 28.4 °F 61% 29.90 in 7.0 mi WSW 5.8 mph - N/A   Clear
9:55 PM 41.0 °F 37.1 °F 28.4 °F 61% 29.90 in 7.0 mi WSW 5.8 mph - N/A   Clear
10:15 PM 41.0 °F 39.0 °F 28.4 °F 61% 29.90 in 7.0 mi WSW 3.5 mph - N/A   Clear
10:35 PM 41.0 °F 37.1 °F 28.4 °F 61% 29.91 in 7.0 mi WSW 5.8 mph - N/A   Clear
10:55 PM 41.0 °F 37.1 °F 28.4 °F 61% 29.91 in 10.0 mi WSW 5.8 mph - N/A   Clear
11:15 PM 41.0 °F 37.1 °F 26.6 °F 57% 29.91 in 7.0 mi WSW 5.8 mph - N/A   Clear
11:35 PM 41.0 °F 37.1 °F 26.6 °F 57% 29.91 in 7.0 mi WSW 5.8 mph - N/A   Clear
11:55 PM 41.0 °F 36.4 °F 26.6 °F 57% 29.91 in 7.0 mi WSW 6.9 mph - N/A   Clear